[[{"header":{"parameterUnit":"m.s-1","parameterCategory":1,"la1":30.2991,"la2":30.254,"lo1":-89.0895,"lo2":-89.0444,"dy":0.0017,"dx":0.0017,"nx":28,"ny":28,"refTime":"2023-10-27T09:00:00:Z","depth":0,"parameterNumber":2,"parameterNumberName":"U-component_of_WINDS"},"data":[0,0,0,0,0,0,0,0,0,0,0,0,0,0,0,0,0,0,0,0,0,0,0,0,0,0,0,0,0,0,0,0,0,0,0,0,0,0,0,0,0,0,0,0,0,0,0,0,0,0,0,0,0,0,0,0,0,0,-2.5719,-2.5719,0,-2.568,-2.5679,-2.5679,-2.5566,-2.5564,-2.5561,-2.5559,-2.5521,-2.5522,-2.5524,0,0,0,0,0,0,0,0,0,0,0,0,0,-2.57,-2.5701,-2.5719,-2.5719,-2.5718,-2.568,-2.5679,-2.5679,-2.5566,-2.5563,-2.556,-2.5558,-2.5521,-2.5522,-2.5524,0,0,0,0,0,0,0,0,0,0,0,0,0,-2.5689,-2.5701,-2.5719,-2.5657,-2.5651,-2.568,-2.5679,-2.5679,-2.5567,-2.5563,-2.556,-2.5556,-2.552,-2.5522,-2.5524,-2.561,0,0,-2.553,-2.5531,0,0,0,0,0,0,0,0,-2.569,-2.569,-2.5667,-2.5662,-2.5655,-2.5624,-2.5659,-2.5656,-2.5568,-2.5599,-2.5559,-2.5554,-2.5559,-2.5557,-2.5558,-2.5608,-2.5607,-2.553,-2.5531,-2.5532,-2.5533,0,0,0,0,0,0,0,-2.5691,-2.5691,-2.5704,-2.5667,-2.566,-2.5633,-2.5627,-2.5658,-2.56,-2.5596,-2.5588,-2.5585,-2.5555,-2.5556,-2.5556,-2.5606,-2.553,-2.5532,-2.5533,-2.5534,-2.5726,-2.573,0,0,0,0,0,0,-2.57,-2.5693,-2.5705,-2.5702,-2.5664,-2.5636,-2.563,-2.5638,-2.5599,-2.559,-2.5588,-2.558,-2.5555,-2.5554,-2.5554,-2.5653,-2.5532,-2.5534,-2.5535,-2.5722,-2.5727,-2.5731,0,0,0,0,0,0,-2.57,-2.5702,-2.5706,-2.5695,-2.5694,-2.564,-2.565,-2.5639,-2.564,-2.5593,-2.5583,-2.56,-2.5552,-2.5552,-2.5597,-2.565,-2.5535,-2.5537,-2.5718,-2.5724,-2.5729,-2.585,0,0,0,0,0,0,-2.57,-2.5703,-2.5734,-2.5697,-2.5695,-2.5749,-2.5653,-2.5641,-2.5644,-2.5633,-2.5602,-2.5593,-2.5549,-2.5595,-2.5599,-2.565,-2.5538,-2.5713,-2.572,-2.5727,-2.5841,-2.5859,-2.5875,0,0,0,0,0,-2.57,-2.577,-2.5736,-2.5739,-2.5733,-2.5752,-2.5751,-2.5698,-2.5649,-2.568,-2.565,-2.5594,-2.5644,-2.56,-2.5604,-2.5657,-2.5709,-2.5718,-2.5727,-2.5834,-2.5856,-2.5875,0,0,0,0,0,0,-2.5816,-2.5764,-2.5726,-2.5786,-2.5775,-2.5733,-2.5771,-2.5724,-2.5726,-2.5716,-2.5651,-2.5645,-2.5699,-2.5683,-2.5635,-2.5739,-2.5667,-2.5677,-2.5747,-2.5768,-2.5785,-2.5787,-2.554,0,0,0,0,0,-2.5849,-2.5868,-2.5822,-2.588,-2.5876,-2.5825,-2.5832,-2.5792,-2.5777,-2.5772,-2.5745,-2.5734,-2.5747,-2.5757,-2.5766,-2.5839,-2.5831,-2.5877,-2.5894,-2.5908,-2.5917,-2.5955,-2.5975,-2.576,-2.576,-2.576,0,0,-2.5916,-2.589,-2.5906,-2.5903,-2.5889,-2.5911,-2.5821,-2.5849,-2.5865,-2.5776,-2.5817,-2.5798,-2.5781,-2.584,-2.5865,-2.5828,-2.5975,-2.592,-2.5931,-2.5933,-2.5966,-2.5987,-2.6005,-2.5766,-2.5765,-2.5764,0,0,-2.605,-2.6033,-2.6079,-2.6067,-2.6047,-2.6013,-2.6025,-2.5991,-2.5974,-2.6014,-2.5948,-2.5967,-2.5991,-2.5981,-2.598,-2.6113,-2.6062,-2.6118,-2.6206,-2.6244,-2.6261,-2.6275,-2.6323,-2.6341,-2.6128,-2.6128,-2.6128,0,-2.6137,-2.6167,-2.6109,-2.614,-2.6141,-2.6062,-2.6109,-2.61,-2.6085,-2.6088,-2.6047,-2.6075,-2.6058,-2.6115,-2.6147,-2.6149,-2.616,-2.6121,-2.6263,-2.6277,-2.629,-2.6334,-2.6352,-2.6135,-2.6134,-2.6133,-2.6133,0,-2.6274,-2.6296,-2.6336,-2.6323,-2.6328,-2.6368,-2.6317,-2.6329,-2.629,-2.6261,-2.6303,-2.6281,-2.6284,-2.6295,-2.6257,-2.6347,-2.6324,-2.6274,-2.6201,-2.6318,-2.6359,-2.6375,-2.6145,-2.6142,-2.614,-2.6139,0,0,-2.6478,-2.6433,-2.6449,-2.6442,-2.6415,-2.6432,-2.6469,-2.6471,-2.6483,-2.6477,-2.6506,-2.6528,-2.6482,-2.6481,-2.6441,-2.6475,-2.6581,-2.642,-2.6419,-2.645,-2.6679,-2.6716,-2.6737,-2.6548,-2.6551,-2.6553,-2.668,0,-2.6604,-2.6663,-2.6613,-2.6681,-2.6701,-2.6627,-2.6659,-2.6647,-2.6621,-2.6636,-2.6608,-2.6624,-2.6562,-2.6561,-2.6591,-2.6562,-2.6626,-2.6552,-2.6575,-2.6576,-2.658,-2.6758,-2.6797,-2.6918,-2.6696,-2.6698,-2.67,0,-2.6759,-2.6758,-2.6829,-2.6798,-2.6805,-2.6834,-2.6833,-2.6848,-2.6833,-2.6812,-2.6812,-2.6763,-2.6798,-2.6728,-2.6775,-2.6726,-2.6733,-2.6721,-2.6724,-2.6723,-2.6645,-2.6761,-2.6955,-2.6973,-2.6725,-2.6723,-2.6721,0,-2.69,-2.6917,-2.6961,-2.6958,-2.6924,-2.6946,-2.6933,-2.6915,-2.692,-2.692,-2.6923,-2.6928,-2.693,-2.6935,-2.689,-2.6843,-2.6944,-2.6869,-2.6928,-2.6929,-2.6951,-2.695,-2.7148,-2.6957,-2.6957,-2.6957,-2.6956,0,-2.7046,-2.7091,-2.7024,-2.7052,-2.7101,-2.7044,-2.7095,-2.7075,-2.7059,-2.7082,-2.7019,-2.7042,-2.6982,-2.6999,-2.6964,-2.7009,-2.7011,-2.6995,-2.6985,-2.7,-2.7002,-2.7003,-2.6993,-2.6962,-2.6961,-2.696,-2.6959,0,-2.7211,-2.7168,-2.7211,-2.7176,-2.7168,-2.7206,-2.7176,-2.72,-2.7171,-2.7201,-2.7204,-2.7159,-2.7176,-2.7132,-2.7142,-2.7119,-2.7183,-2.716,-2.7188,-2.7181,-2.7241,-2.7236,-2.7446,-2.747,-2.7265,-2.7267,-2.7269,0,-2.7306,-2.7339,-2.7307,-2.7318,-2.7308,-2.7326,-2.7331,-2.7277,-2.7285,-2.7272,-2.7298,-2.731,-2.7316,-2.7347,-2.7315,-2.7323,-2.7299,-2.7372,-2.73,-2.7314,-2.73,-2.7298,-2.7301,-2.7387,-2.739,-2.7392,-2.7393,0,-2.7479,-2.7456,-2.7466,-2.7469,-2.7476,-2.7476,-2.7471,-2.7484,-2.7426,-2.7439,-2.7455,-2.746,-2.7471,-2.7484,-2.7485,-2.7472,-2.7424,-2.7417,-2.743,-2.7445,-2.746,-2.7452,-2.7228,-2.7412,-2.741,-2.7408,-2.7407,-2.7407,-2.7611,-2.7638,-2.762,-2.7633,-2.7624,-2.7621,-2.7642,-2.7616,-2.7628,-2.7632,-2.76,-2.7624,-2.761,-2.7606,-2.7599,-2.7617,-2.7584,-2.7604,-2.7609,-2.7615,-2.7624,-2.7458,-2.7617,-2.7617,-2.7616,-2.7616,-2.7615,0,-2.778,-2.7765,-2.7778,-2.7773,-2.7784,-2.7738,-2.7731,-2.7743,-2.7764,-2.7755,-2.7762,-2.7782,-2.7794,-2.7764,-2.7772,-2.7793,-2.7771,-2.7797,-2.7794,-2.7792,-2.7654,-2.7641,-2.7814,-2.7814,-2.7814,-2.7814,-2.7814,-2.7814,-2.787,-2.7912,-2.7888,-2.7926,-2.791,-2.7932,-2.7932,-2.793,-2.7922,-2.7947,-2.7956,-2.7937,-2.792,-2.7926,-2.7936,-2.7927,-2.7933,-2.7966,-2.795,-2.7821,-2.7802,-2.7783,-2.777,-2.7968,-2.7969,-2.8086,-2.8087,-2.8088]},{"header":{"parameterUnit":"m.s-1","parameterCategory":1,"la1":30.2991,"la2":30.254,"lo1":-89.0895,"lo2":-89.0444,"dy":0.0017,"dx":0.0017,"nx":28,"ny":28,"refTime":"2023-10-27T09:00:00:Z","depth":0,"parameterNumber":3,"parameterNumberName":"V-component_of_WINDS"},"data":[0,0,0,0,0,0,0,0,0,0,0,0,0,0,0,0,0,0,0,0,0,0,0,0,0,0,0,0,0,0,0,0,0,0,0,0,0,0,0,0,0,0,0,0,0,0,0,0,0,0,0,0,0,0,0,0,0,0,0.4398,0.4397,0,0.4357,0.4356,0.4356,0.4279,0.4277,0.4276,0.4274,0.4233,0.4234,0.4234,0,0,0,0,0,0,0,0,0,0,0,0,0,0.4414,0.4414,0.4398,0.4397,0.4397,0.4357,0.4356,0.4355,0.4279,0.4277,0.4275,0.4274,0.4233,0.4234,0.4234,0,0,0,0,0,0,0,0,0,0,0,0,0,0.4393,0.4414,0.4398,0.4354,0.4349,0.4357,0.4356,0.4355,0.4279,0.4277,0.4275,0.4273,0.4233,0.4234,0.4234,0.4281,0,0,0.4235,0.4236,0,0,0,0,0,0,0,0,0.4394,0.4393,0.4361,0.4357,0.4352,0.432,0.4346,0.4331,0.428,0.4306,0.4274,0.4272,0.4264,0.4262,0.4259,0.4279,0.4278,0.4235,0.4236,0.4236,0.4236,0,0,0,0,0,0,0,0.4396,0.4394,0.4381,0.436,0.4355,0.4337,0.4332,0.4343,0.4298,0.4304,0.4298,0.4294,0.4261,0.4259,0.4258,0.4277,0.4235,0.4236,0.4236,0.4236,0.4337,0.434,0,0,0,0,0,0,0.4404,0.4396,0.4383,0.438,0.4368,0.4339,0.4333,0.4333,0.4298,0.429,0.4296,0.4291,0.4259,0.4257,0.4256,0.4311,0.4236,0.4236,0.4237,0.4335,0.4338,0.434,0,0,0,0,0,0,0.4404,0.4403,0.4384,0.4386,0.4383,0.4341,0.4342,0.4333,0.4331,0.4292,0.4284,0.4302,0.4257,0.4255,0.4276,0.4308,0.4236,0.4237,0.4332,0.4336,0.4339,0.442,0,0,0,0,0,0,0.4405,0.4404,0.442,0.4387,0.4383,0.4405,0.4344,0.4334,0.4331,0.4324,0.4295,0.4288,0.4256,0.4276,0.4277,0.4307,0.4237,0.4329,0.4334,0.4338,0.4414,0.4426,0.4436,0,0,0,0,0,0.4406,0.4444,0.4421,0.442,0.4403,0.4406,0.4404,0.4365,0.4334,0.4351,0.4327,0.4289,0.4305,0.4279,0.4279,0.431,0.4327,0.4332,0.4338,0.4409,0.4424,0.4436,0,0,0,0,0,0,0.4482,0.4439,0.4413,0.4442,0.4429,0.4394,0.4413,0.4381,0.4376,0.437,0.4322,0.4317,0.4344,0.4329,0.4301,0.4356,0.431,0.4316,0.4365,0.4378,0.4388,0.4391,0.4238,0,0,0,0,0,0.4502,0.4508,0.447,0.45,0.4494,0.4456,0.4456,0.4427,0.4412,0.4406,0.4382,0.4369,0.4371,0.4374,0.4373,0.4412,0.4406,0.4434,0.4445,0.4454,0.4459,0.4481,0.4494,0.4358,0.4358,0.4358,0,0,0.4543,0.4521,0.4527,0.4514,0.45,0.4509,0.4451,0.4462,0.4468,0.4407,0.4426,0.4409,0.4391,0.4422,0.4434,0.441,0.4496,0.4461,0.4468,0.4469,0.4488,0.4501,0.4513,0.4362,0.4361,0.4361,0,0,0.4623,0.4606,0.463,0.4618,0.4598,0.4572,0.4578,0.4549,0.4535,0.4554,0.4509,0.4516,0.452,0.451,0.4506,0.4586,0.4552,0.4587,0.4644,0.4666,0.4677,0.4686,0.4716,0.4727,0.4593,0.4593,0.4593,0,0.4677,0.4687,0.4646,0.466,0.4657,0.4603,0.4628,0.4618,0.46,0.4599,0.4573,0.4579,0.4562,0.4591,0.4611,0.4609,0.4616,0.459,0.4678,0.4687,0.4695,0.4724,0.4735,0.4598,0.4597,0.4597,0.4596,0,0.4756,0.4764,0.4786,0.477,0.4769,0.4789,0.4752,0.4756,0.4729,0.4707,0.4728,0.4707,0.4703,0.4708,0.468,0.4734,0.472,0.4687,0.4639,0.4713,0.4739,0.475,0.4604,0.4603,0.4601,0.46,0,0,0.488,0.4844,0.4852,0.4846,0.4821,0.4827,0.4846,0.4842,0.4848,0.4838,0.4853,0.4859,0.4829,0.4824,0.4796,0.4815,0.4883,0.478,0.4779,0.4801,0.4943,0.4969,0.4982,0.486,0.4862,0.4864,0.4945,0,0.4956,0.4984,0.4949,0.4986,0.4994,0.4945,0.4961,0.4949,0.493,0.4935,0.4914,0.492,0.4879,0.4876,0.4893,0.4871,0.4911,0.4865,0.4876,0.4876,0.4882,0.4995,0.5021,0.5099,0.4955,0.4956,0.4957,0,0.5047,0.5042,0.508,0.5056,0.5058,0.5073,0.5069,0.5074,0.506,0.5045,0.5042,0.5009,0.5027,0.4982,0.5007,0.4977,0.4979,0.497,0.4972,0.4972,0.4922,0.4999,0.5122,0.5134,0.4973,0.4971,0.497,0,0.5136,0.5139,0.5162,0.5158,0.513,0.5143,0.5132,0.5116,0.5117,0.5113,0.5114,0.5113,0.5112,0.5112,0.5081,0.505,0.5111,0.5063,0.51,0.5102,0.5115,0.5115,0.5242,0.5116,0.5116,0.5116,0.5115,0,0.5223,0.5249,0.5202,0.5217,0.5245,0.5205,0.5235,0.5219,0.5206,0.5218,0.5175,0.5187,0.5144,0.5153,0.5128,0.5155,0.5154,0.5144,0.5137,0.5148,0.5149,0.5149,0.5143,0.5119,0.5118,0.5117,0.5117,0,0.5327,0.5296,0.5319,0.5292,0.5286,0.5308,0.5286,0.5299,0.5278,0.5294,0.5296,0.5263,0.5271,0.524,0.5242,0.5226,0.5265,0.5249,0.527,0.5265,0.5306,0.5303,0.5437,0.5454,0.5317,0.5318,0.5319,0,0.5385,0.5404,0.538,0.5385,0.5376,0.5385,0.5386,0.5349,0.5352,0.534,0.5356,0.536,0.5362,0.5377,0.5355,0.5357,0.5341,0.5388,0.5341,0.5353,0.5344,0.5343,0.5346,0.5398,0.54,0.5401,0.5402,0,0.5492,0.5477,0.548,0.548,0.5483,0.548,0.5475,0.5482,0.5442,0.5448,0.5456,0.5458,0.5462,0.5467,0.5466,0.5456,0.5424,0.5418,0.5427,0.5438,0.545,0.5446,0.5298,0.5415,0.5413,0.5412,0.5412,0.5411,0.5575,0.5591,0.5577,0.5583,0.5576,0.5572,0.5584,0.5566,0.5572,0.5572,0.555,0.5563,0.5552,0.5547,0.554,0.5551,0.5529,0.5542,0.5545,0.5549,0.5557,0.5449,0.555,0.555,0.555,0.5549,0.5549,0,0.5682,0.5671,0.5677,0.5672,0.5677,0.5647,0.564,0.5647,0.5659,0.5651,0.5655,0.5666,0.5672,0.5651,0.5655,0.5668,0.5653,0.567,0.5669,0.5668,0.5575,0.5568,0.5682,0.5682,0.5682,0.5682,0.5682,0.5682,0.5737,0.5763,0.5747,0.5769,0.5758,0.577,0.577,0.5768,0.5762,0.5776,0.5781,0.5767,0.5755,0.5758,0.5764,0.5757,0.5761,0.5784,0.5773,0.5687,0.5674,0.5661,0.5654,0.5785,0.5785,0.5864,0.5865,0.5865]}]]